• In Belgien
  • Länderverzeichnis
  • Für 7 Tage
  • Wassertemperatur
  • Satellitenkarten
  • Wetterkarte
  • Widgets
  • user-avatar
    Anmelden

    Stündliche Wetter Djelfa

    Heute, 19 August, Samstag

    Zeit Temperatur Niederschläge Wind Luftdruck Luftfeuchtigkeit
    00:00 +30°C° 0 mm 5 m/S 668 mmHg 24%
    01:00 +29°C° 0 mm 5 m/S 668 mmHg 25%
    02:00 +29°C° 0 mm 4 m/S 668 mmHg 26%
    03:00 +28°C° 0 mm 4 m/S 668 mmHg 26%
    04:00 +28°C° 0 mm 4 m/S 668 mmHg 27%
    05:00 +28°C° 0 mm 3 m/S 668 mmHg 27%
    06:00 +28°C° 0 mm 3 m/S 668 mmHg 27%
    07:00 +29°C° 0 mm 4 m/S 669 mmHg 25%
    08:00 +32°C° 0 mm 5 m/S 669 mmHg 23%
    09:00 +34°C° 0 mm 6 m/S 670 mmHg 21%
    10:00 +35°C° 0 mm 5 m/S 670 mmHg 19%
    11:00 +36°C° 0 mm 5 m/S 670 mmHg 18%
    12:00 +37°C° 0 mm 5 m/S 670 mmHg 16%
    13:00 +37°C° 0 mm 4 m/S 669 mmHg 16%
    14:00 +37°C° 0 mm 4 m/S 669 mmHg 15%
    15:00 +38°C° 0 mm 4 m/S 669 mmHg 14%
    16:00 +37°C° 0 mm 4 m/S 669 mmHg 15%
    17:00 +37°C° 0 mm 5 m/S 669 mmHg 15%
    18:00 +36°C° 0 mm 5 m/S 668 mmHg 16%
    19:00 +35°C° 0 mm 5 m/S 669 mmHg 19%
    20:00 +34°C° 0 mm 5 m/S 669 mmHg 21%
    21:00 +33°C° 0 mm 4 m/S 669 mmHg 23%
    22:00 +32°C° 0 mm 4 m/S 669 mmHg 27%
    23:00 +31°C° 0 mm 3 m/S 669 mmHg 32%

    Morgen, 20 August, Sonntag

    Zeit Temperatur Niederschläge Wind Luftdruck Luftfeuchtigkeit
    00:00 +30°C° 0 mm 3 m/S 669 mmHg 36%
    01:00 +29°C° 0 mm 2 m/S 668 mmHg 40%
    02:00 +28°C° 0 mm 2 m/S 668 mmHg 43%
    03:00 +28°C° 0 mm 2 m/S 668 mmHg 47%
    04:00 +27°C° 0 mm 2 m/S 668 mmHg 48%
    05:00 +27°C° 0 mm 2 m/S 668 mmHg 49%
    06:00 +27°C° 0 mm 2 m/S 668 mmHg 51%
    07:00 +28°C° 0 mm 2 m/S 668 mmHg 45%
    08:00 +30°C° 0 mm 2 m/S 669 mmHg 39%
    09:00 +31°C° 0 mm 2 m/S 670 mmHg 33%
    10:00 +33°C° 0 mm 3 m/S 670 mmHg 29%
    11:00 +34°C° 0 mm 3 m/S 670 mmHg 24%
    12:00 +35°C° 0 mm 3 m/S 670 mmHg 20%
    13:00 +36°C° 0 mm 4 m/S 669 mmHg 18%
    14:00 +36°C° 0 mm 4 m/S 669 mmHg 16%
    15:00 +37°C° 0 mm 5 m/S 669 mmHg 15%
    16:00 +36°C° 0 mm 5 m/S 669 mmHg 15%
    17:00 +36°C° 0 mm 5 m/S 669 mmHg 15%
    18:00 +35°C° 0 mm 5 m/S 669 mmHg 16%
    19:00 +34°C° 0 mm 5 m/S 669 mmHg 18%
    20:00 +33°C° 0 mm 5 m/S 669 mmHg 21%
    21:00 +32°C° 0 mm 4 m/S 669 mmHg 24%
    22:00 +30°C° 0 mm 4 m/S 669 mmHg 28%
    23:00 +30°C° 0 mm 3 m/S 669 mmHg 32%

    übermorgen, 21 August, Montag

    Zeit Temperatur Niederschläge Wind Luftdruck Luftfeuchtigkeit
    00:00 +29°C° 0 mm 3 m/S 669 mmHg 36%
    01:00 +28°C° 0 mm 3 m/S 668 mmHg 39%
    02:00 +27°C° 0 mm 2 m/S 668 mmHg 41%
    03:00 +27°C° 0 mm 2 m/S 668 mmHg 44%
    04:00 +27°C° 0 mm 2 m/S 668 mmHg 45%
    05:00 +26°C° 0 mm 2 m/S 668 mmHg 46%
    06:00 +26°C° 0 mm 2 m/S 668 mmHg 47%
    07:00 +27°C° 0 mm 2 m/S 668 mmHg 43%
    08:00 +28°C° 0 mm 2 m/S 669 mmHg 38%
    09:00 +29°C° 0 mm 2 m/S 669 mmHg 34%
    10:00 +30°C° 0 mm 2 m/S 669 mmHg 30%
    11:00 +32°C° 0 mm 2 m/S 669 mmHg 26%
    12:00 +34°C° 0 mm 3 m/S 669 mmHg 22%
    13:00 +34°C° 0 mm 3 m/S 669 mmHg 20%
    14:00 +35°C° 0 mm 4 m/S 668 mmHg 19%
    15:00 +35°C° 0 mm 4 m/S 668 mmHg 17%
    16:00 +35°C° 0 mm 4 m/S 668 mmHg 18%
    17:00 +34°C° 0 mm 5 m/S 668 mmHg 18%
    18:00 +34°C° 0 mm 5 m/S 668 mmHg 19%
    19:00 +33°C° 0 mm 5 m/S 668 mmHg 21%
    20:00 +32°C° 0 mm 4 m/S 668 mmHg 23%
    21:00 +30°C° 0 mm 4 m/S 668 mmHg 25%
    22:00 +30°C° 0 mm 3 m/S 668 mmHg 26%
    23:00 +29°C° 0 mm 3 m/S 668 mmHg 28%

    22 August, Dienstag

    Zeit Temperatur Niederschläge Wind Luftdruck Luftfeuchtigkeit
    00:00 +28°C° 0 mm 2 m/S 668 mmHg 29%
    01:00 +27°C° 0 mm 2 m/S 667 mmHg 30%
    02:00 +27°C° 0 mm 1 m/S 667 mmHg 31%
    03:00 +26°C° 0 mm 1 m/S 667 mmHg 32%
    04:00 +26°C° 0 mm 1 m/S 667 mmHg 32%
    05:00 +26°C° 0 mm 1 m/S 667 mmHg 33%
    06:00 +26°C° 0 mm 1 m/S 667 mmHg 33%
    07:00 +27°C° 0 mm 1 m/S 668 mmHg 31%
    08:00 +28°C° 0 mm 2 m/S 668 mmHg 29%
    09:00 +29°C° 0 mm 2 m/S 669 mmHg 28%
    10:00 +30°C° 0 mm 2 m/S 669 mmHg 26%
    11:00 +31°C° 0 mm 2 m/S 668 mmHg 24%
    12:00 +32°C° 0 mm 2 m/S 668 mmHg 22%
    13:00 +34°C° 0 mm 3 m/S 668 mmHg 20%
    14:00 +34°C° 0 mm 3 m/S 668 mmHg 19%
    15:00 +35°C° 0 mm 3 m/S 668 mmHg 17%
    16:00 +35°C° 0 mm 4 m/S 667 mmHg 17%
    17:00 +34°C° 0 mm 4 m/S 667 mmHg 17%
    18:00 +34°C° 0 mm 4 m/S 667 mmHg 17%
    19:00 +33°C° 0 mm 4 m/S 667 mmHg 19%
    20:00 +31°C° 0 mm 3 m/S 668 mmHg 20%
    21:00 +30°C° 0 mm 3 m/S 668 mmHg 22%
    22:00 +29°C° 0 mm 3 m/S 667 mmHg 25%
    23:00 +29°C° 0 mm 3 m/S 667 mmHg 29%

    23 August, Mittwoch

    Zeit Temperatur Niederschläge Wind Luftdruck Luftfeuchtigkeit
    00:00 +28°C° 0 mm 3 m/S 667 mmHg 33%
    01:00 +27°C° 0 mm 3 m/S 667 mmHg 36%
    02:00 +27°C° 0 mm 3 m/S 667 mmHg 38%
    03:00 +26°C° 0 mm 2 m/S 666 mmHg 41%
    04:00 +26°C° 0 mm 2 m/S 667 mmHg 42%
    05:00 +26°C° 0 mm 2 m/S 667 mmHg 42%
    06:00 +26°C° 0 mm 2 m/S 667 mmHg 43%
    07:00 +27°C° 0 mm 3 m/S 668 mmHg 39%
    08:00 +28°C° 0 mm 4 m/S 668 mmHg 36%
    09:00 +30°C° 0 mm 4 m/S 669 mmHg 33%
    10:00 +32°C° 0 mm 4 m/S 669 mmHg 30%
    11:00 +33°C° 0 mm 4 m/S 669 mmHg 27%
    12:00 +34°C° 0 mm 3 m/S 669 mmHg 25%
    13:00 +34°C° 0 mm 3 m/S 668 mmHg 23%
    14:00 +34°C° 0 mm 3 m/S 668 mmHg 22%
    15:00 +35°C° 0 mm 2 m/S 668 mmHg 20%
    16:00 +35°C° 0 mm 3 m/S 668 mmHg 20%
    17:00 +35°C° 0 mm 3 m/S 668 mmHg 20%
    18:00 +34°C° 0 mm 3 m/S 667 mmHg 20%
    19:00 +34°C° 0 mm 4 m/S 668 mmHg 22%
    20:00 +33°C° 0 mm 4 m/S 668 mmHg 23%
    21:00 +32°C° 0 mm 5 m/S 668 mmHg 25%
    22:00 +30°C° 0 mm 5 m/S 668 mmHg 27%
    23:00 +29°C° 0 mm 5 m/S 668 mmHg 29%

    24 August, Donnerstag

    Zeit Temperatur Niederschläge Wind Luftdruck Luftfeuchtigkeit
    00:00 +28°C° 0 mm 6 m/S 667 mmHg 32%
    01:00 +28°C° 0 mm 5 m/S 667 mmHg 33%
    02:00 +27°C° 0 mm 5 m/S 667 mmHg 35%
    03:00 +26°C° 0 mm 4 m/S 667 mmHg 37%
    04:00 +26°C° 0 mm 4 m/S 667 mmHg 37%
    05:00 +26°C° 0 mm 4 m/S 667 mmHg 38%
    06:00 +26°C° 0 mm 3 m/S 668 mmHg 39%
    07:00 +27°C° 0 mm 4 m/S 668 mmHg 36%
    08:00 +29°C° 0 mm 5 m/S 669 mmHg 33%
    09:00 +30°C° 0 mm 5 m/S 669 mmHg 29%
    10:00 +32°C° 0 mm 5 m/S 669 mmHg 27%
    11:00 +33°C° 0 mm 5 m/S 669 mmHg 25%
    12:00 +34°C° 0 mm 5 m/S 669 mmHg 23%
    13:00 +34°C° 0 mm 4 m/S 669 mmHg 22%
    14:00 +35°C° 0 mm 4 m/S 669 mmHg 20%
    15:00 +35°C° 0 mm 3 m/S 668 mmHg 19%
    16:00 +35°C° 0 mm 3 m/S 668 mmHg 19%
    17:00 +35°C° 0 mm 3 m/S 668 mmHg 19%
    18:00 +35°C° 0 mm 4 m/S 668 mmHg 19%
    19:00 +34°C° 0 mm 5 m/S 668 mmHg 22%
    20:00 +32°C° 0 mm 6 m/S 668 mmHg 25%
    21:00 +30°C° 0 mm 7 m/S 668 mmHg 28%
    22:00 +29°C° 0 mm 7 m/S 668 mmHg 30%
    23:00 +29°C° 0 mm 7 m/S 668 mmHg 32%
    Mehr zeigen